SCP
0 0 0 0 0 0 0 0 0 0 0 0 0 -0 -0 -0 -0 -0 -0 -0 -0 -0 -0 -0 -0 -0 -0 -0 -0 -0 -0 -0 -0 -0 -0 -0 -0 -0 -0 -0 -0 -0 -0
0 0 0 0 0 0 0 0 0 0 0 0 0 -0 -0 -0 -0 -0 -0 -0 -0 -0 -0 -0 -0 -0 -0 -0 -0 -0 -0 -0 -0 -0 -0 -0 -0 -0 -0 -0 -0 -0 -0
0 0 0 0 0 0 0 0 0 0 0 -0 0 0 -0 0 -0 -0 -0 -0 -0 -0 -0 -0 -0 -0 -0 -0 -0 -0 -0 -0 -0 -0 -0 0 -0 -0 -0 -0 -0 -0 -0
0 0 0 0 0 0 0 0 0 0 0 0 0 0 -0 -0 -0 -0 -0 -0 -0 -0 -0 -0 -0 -0 -0 -0 -0 -0 -0 -0 -0 -0 0 0 0 -0 -0 -0 -0 -0 -0
0 0 0 0 -0 0 0 0 0 0 0 0 -0 0 -0 -0 -0 -0 -0 -0 -0 -0 -0 -0 -0 -0 -0 -0 -0 -0 -0 -0 -0 -0 0 0 0 0 -0 -0 0 0 0
0 0 0 0 -0 -0 -0 -0 0 -0 -0 -0 -0 -0 -0 -0 -0 -0 -0 -0 -0 -0 -0 -0 -0 -0 -0 -0 -0 -0 -0 -0 -0 0 0 0 0 0 -0 0 0 0 0
-0 0 0 0 -0 -0 -0 -0 -0 -0 -0 -0 -0 -0 -0 -0 -0 -0 -0 -0 -0 -0 -0 -0 -0 -0 -0 -0 -0 -0 -0 -0 0 0 0 0 0 0 0 0 0 0 0
-0 0 0 0 0 -0 -0 -0 -0 -0 -0 -0 -0 -0 -0 -0 -0 -0 -0 -0 -0 -0 -0 -0 -0 -0 -0 -0 -0 -0 -0 0 0 0 0 0 0 0 0 0 0 0 0
-0 -0 0 0 0 -0 -0 -0 -0 -0 -0 -0 -0 -0 -0 -0 -0 -0 -0 -0 -0 -0 -0 -0 -0 -0 -0 -0 -0 -0 0 0 0 0 0 0 0 0 0 0 0 0 0
-0 -0 -0 0 0 0 0 -0 -0 -0 -0 -0 -0 -0 -0 -0 -0 -0 -0 -0 -0 -0 -0 -0 0 0 -0 0 0 0 0 0 0 0 0 0 0 0 0 0 0 0 0
-0 -0 -0 0 0 0 0 0 -0 -0 -0 -0 -0 -0 -0 0 -0 -0 -0 -0 -0 -0 0 0 0 0 0 0 0 0 0 0 0 0 0 0 0 0 0 0 0 0 0
-0 -0 -0 -0 -0 0 0 0 0 0 0 0 0 -0 0 0 0 0 0 -0 -0 0 0 0 0 0 0 0 0 0 0 0 0 0 0 0 0 0 0 0 0 0 0
-0 -0 -0 -0 -0 -0 -0 0 0 0 0 0 0 0 0 0 0 0 0 0 0 0 0 0 0 0 0 0 0 0 0 0 0 0 0 0 0 0 0 0 0 0 0
-0 -0 -0 -0 -0 -0 -0 -0 -0 -0 -0 0 -0 -0 -0 0 0 0 0 0 0 0 0 0 0 0 0 0 0 0 0 0 0 0 0 0 0 0 0 0 0 0 0
-0 -0 -0 -0 -0 -0 -0 -0 -0 -0 -0 0 0 0 0 0 0 0 0 0 0 0 0 0 0 0 0 0 0 0 0 0 0 0 0 0 0 0 0 0 0 0 0
-0 -0 -0 -0 -0 -0 -0 -0 0 0 0 0 0 0 0 0 0 0 0 0 0 0 0 0 0 0 0 0 0 0 0 0 0 0 0 0 0 0 0 0 0 0 0
-0 -0 -0 -0 -0 -0 -0 0 0 0 0 0 0 0 0 0 0 0 0 0 0 0 0 0 0 0 0 0 0 0 0 0 0 0 0 0 0 0 0 0 0 0 0
0 -0 -0 -0 0 0 0 0 0 0 0 0 0 0 0 0 0 0 0 0 0 0 0 0 0 0 0 0 0 0 0 0 0 0 0 0 0 0 0 0 0 0 0
0 0 0 0 0 0 0 0 0 0 0 0 0 0 0 0 0 0 0 0 0 0 0 0 0 0 0 0 0 0 0 0 0 0 0 0 0 0 0 0 0 0 0
0 0 0 0 0 0 0 0 0 0 0 0 0 0 0 0 0 0 0 0 0 0 0 0 0 0 0 0 0 0 0 0 0 0 0 0 0 0 0 0 0 0 0
0 0 0 0 0 0 0 0 0 0 0 0 0 0 0 0 0 0 0 0 0 0 0 0 0 0 0 0 0 0 0 0 0 0 0 0 0 0 0 0 0 0 0
0 0 0 0 0 0 0 0 0 0 0 0 0 0 0 0 0 0 0 0 0 0 0 0 0 0 0 0 0 0 0 0 0 0 0 0 0 0 0 0 0 0 0
0 0 0 0 0 0 0 0 0 0 0 0 0 0 0 0 0 0 0 0 0 0 0 0 0 0 0 0 0 0 0 0 0 0 0 0 0 0 0 0 0 0 0
0 0 0 0 0 0 0 0 0 0 0 0 0 0 0 0 0 0 0 0 0 0 0 0 0 0 0 0 0 0 0 0 0 0 0 0 0 0 0 0 0 0 0
0 0 0 0 0 0 0 0 0 0 0 0 0 0 0 0 0 0 0 0 0 0 0 0 0 0 0 0 0 0 0 0 0 0 0 0 0 0 0 0 0 0 0
0 0 0 0 0 0 0 0 0 0 0 0 0 0 0 0 0 0 0 0 0 0 0 0 0 0 0 0 0 0 0 0 0 0 0 0 0 0 0 0 0 0 0
Wind_Speed_500mb
24 17 17 23 23 21 22 24 26 27 32 29 26 23 25 29 34 33 31 27 24 25 30 36 35 36 34 32 30 29 28 27 28 31 33 31 29 29 29 25 27 30 28
30 25 23 26 25 22 23 26 28 28 32 30 26 27 27 30 31 28 26 24 25 26 31 33 31 28 26 25 26 26 24 27 27 26 28 28 27 23 24 21 17 14 11
31 29 28 27 25 23 26 27 26 29 33 30 25 31 32 32 29 26 22 23 29 30 28 27 25 21 24 24 25 26 25 35 31 32 31 33 33 23 18 15 17 18 23
32 31 30 28 25 24 25 27 26 28 27 27 26 32 29 30 29 24 20 20 29 26 30 26 23 23 25 24 24 23 25 25 22 25 25 18 16 11 15 18 24 26 25
34 32 32 29 26 25 25 26 25 25 26 26 26 31 30 32 30 28 25 24 23 26 31 30 26 24 24 26 26 22 18 16 19 18 18 16 15 13 13 15 19 20 30
37 34 32 29 27 25 24 24 24 24 23 23 24 29 33 29 30 28 32 31 27 31 34 30 25 23 21 18 17 17 14 12 16 14 13 11 13 11 11 14 12 24 26
39 35 33 30 27 26 24 22 22 22 21 21 22 24 25 23 23 26 25 23 24 28 29 27 23 20 16 13 11 12 11 9 12 13 16 20 23 18 13 17 17 19 18
38 37 34 32 28 27 25 21 19 19 18 18 19 19 18 19 20 19 17 16 20 23 26 25 21 16 14 13 11 18 18 19 19 18 20 25 16 11 11 12 14 11 12
34 36 36 34 31 28 24 21 18 17 16 15 15 14 15 15 16 18 17 16 19 21 22 22 20 16 11 11 13 14 18 20 17 16 20 25 14 13 13 20 13 12 11
32 34 36 36 33 31 26 23 19 16 15 13 12 11 11 11 10 9 8 12 16 17 16 17 16 17 10 8 11 15 20 20 18 16 16 17 14 19 18 15 10 4 4
33 34 38 37 35 33 29 25 22 18 16 13 11 9 9 9 8 9 9 9 14 14 14 13 13 14 13 8 10 15 20 20 18 17 16 15 12 12 7 6 7 9 2
39 34 41 39 37 35 32 27 24 20 16 14 11 9 7 8 9 10 8 9 11 11 11 10 10 10 10 7 10 14 17 22 19 17 18 19 18 16 10 9 5 2 1
43 35 43 43 40 39 35 32 28 24 21 18 14 10 7 8 9 9 9 9 10 10 8 9 8 8 7 6 7 9 12 13 16 16 16 17 18 17 14 13 9 5 0
52 45 46 45 44 43 39 36 32 29 26 23 20 16 11 8 7 9 10 12 12 10 9 8 6 7 7 5 3 5 8 9 11 14 16 15 15 16 15 15 14 7 4
56 50 46 45 44 44 43 40 38 35 31 27 25 21 17 12 8 10 11 14 15 13 11 9 7 6 3 1 3 6 8 11 13 14 15 15 14 15 16 16 14 11 10
61 54 52 52 49 45 43 42 39 37 34 33 31 27 23 19 16 14 13 16 17 17 15 15 12 10 8 8 8 11 15 17 18 18 18 18 17 17 17 20 19 16 18
63 58 58 56 55 54 51 45 40 39 40 40 36 32 28 27 24 20 18 18 18 20 21 21 17 15 12 13 15 17 20 22 25 28 27 25 25 24 24 24 24 24 23
59 61 61 59 62 62 58 55 49 41 43 40 38 35 34 33 32 30 26 22 20 21 23 23 22 19 19 20 22 25 29 30 29 33 37 37 36 37 34 32 31 32 32
52 52 57 55 57 65 66 61 57 50 49 47 44 43 40 40 38 38 32 25 25 25 24 26 25 24 23 28 31 34 37 38 38 40 42 43 42 43 44 43 40 40 39
44 45 48 49 50 51 65 68 64 61 58 55 52 50 45 42 42 42 39 36 35 34 34 33 32 33 34 38 41 43 44 46 46 47 43 44 46 46 47 47 46 45 45
51 50 52 52 53 52 58 68 72 73 68 63 59 56 52 45 45 45 44 43 43 45 40 40 40 41 44 48 46 47 48 52 54 48 43 39 41 40 42 45 47 49 48
57 58 61 60 56 54 58 58 60 64 68 68 62 60 57 55 48 46 49 49 48 49 50 48 48 47 49 52 50 51 55 56 53 37 40 41 42 42 39 37 42 41 41
60 65 67 65 63 56 55 56 55 52 57 62 69 68 64 61 58 55 50 54 55 56 55 52 52 54 56 56 56 48 31 21 47 52 48 48 44 42 40 42 41 40 42
55 56 65 63 65 59 58 59 58 60 59 60 58 58 64 64 63 59 55 53 52 55 58 57 59 56 59 58 61 61 53 59 52 44 53 55 52 42 44 47 45 48 45
60 59 60 65 66 64 65 66 64 65 62 57 53 48 47 48 59 64 66 64 63 59 55 54 54 61 57 50 61 53 55 53 58 57 58 56 47 46 49 57 44 42 41
57 62 62 64 66 66 67 70 70 68 67 64 54 53 49 47 48 54 57 61 65 65 70 60 55 57 60 51 48 51 51 54 55 49 51 53 54 62 57 43 37 40 39
Wind_Direction_500mb
176 165 144 123 116 95 82 94 107 103 97 90 90 94 105 118 117 111 103 94 88 84 87 91 89 89 88 85 81 78 75 73 76 81 85 81 79 80 80 84 90 89 86
157 158 142 132 127 103 87 94 107 106 107 98 90 94 106 118 127 122 114 112 104 105 102 104 98 95 88 83 81 74 72 77 79 88 91 86 77 75 82 78 75 80 69
160 153 143 140 132 113 99 99 106 103 114 98 89 90 96 108 128 129 120 113 108 101 103 103 96 95 84 82 80 73 80 82 78 80 80 82 77 74 71 55 55 56 65
158 153 146 145 134 122 104 101 103 99 110 104 87 97 92 98 108 115 115 107 100 96 105 106 111 99 95 92 84 80 82 86 90 89 80 72 73 50 44 43 58 72 75
160 155 150 149 139 130 115 106 101 98 102 110 102 97 91 86 90 97 99 101 103 98 102 109 108 101 95 94 89 77 78 89 93 91 96 80 57 41 45 50 67 63 64
162 158 155 155 145 138 128 116 107 103 101 102 99 105 106 107 100 90 100 105 95 96 98 103 101 101 101 97 94 85 75 72 83 90 86 86 92 66 53 71 77 83 90
164 162 160 159 154 146 139 125 115 110 108 104 105 106 110 113 114 109 111 105 95 98 102 104 101 103 107 107 84 78 80 67 55 78 64 71 67 72 68 90 80 98 116
170 165 165 163 163 156 148 139 129 120 117 114 113 111 111 106 110 117 127 110 102 107 109 104 96 99 106 105 88 78 71 54 50 67 72 78 86 77 53 92 84 98 96
180 173 171 170 170 167 158 152 145 133 126 120 115 116 117 115 115 122 116 121 110 116 111 105 100 108 114 95 72 54 46 39 40 70 80 85 81 65 60 74 72 73 63
182 185 181 179 177 175 170 165 160 152 142 138 127 123 127 128 127 127 112 113 126 120 112 109 105 109 125 71 47 43 40 34 49 66 75 80 56 57 71 85 95 100 69
189 197 193 189 186 184 182 178 175 172 164 159 151 146 142 140 143 147 132 129 142 133 124 119 116 119 128 102 53 49 45 46 52 54 52 55 61 81 76 51 58 41 65
199 194 202 198 196 194 193 189 187 186 184 179 179 172 156 160 160 158 152 139 149 148 138 125 116 115 110 84 59 56 54 51 51 47 39 33 33 34 39 32 23 112 338
203 207 204 203 204 205 202 199 198 199 199 199 204 203 189 169 176 178 170 161 171 166 155 137 118 117 109 95 65 51 51 50 43 36 27 24 21 20 21 17 8 17 158
203 209 207 207 207 212 210 210 208 209 210 212 216 220 218 209 193 195 191 189 194 194 186 169 151 140 140 100 69 50 28 24 21 17 11 4 2 4 3 2 0 352 279
209 211 210 213 213 214 217 215 214 215 217 220 225 227 228 229 222 216 211 212 213 211 211 202 189 192 183 180 283 316 333 341 344 344 349 340 338 341 336 334 333 324 294
218 216 208 211 215 220 220 216 219 219 221 221 227 230 232 233 235 229 223 223 223 222 221 216 215 217 241 263 273 294 311 318 320 318 322 328 320 317 310 309 312 296 297
224 221 220 211 216 218 218 223 226 226 225 228 226 229 233 237 237 239 234 229 225 222 225 222 228 235 246 264 280 287 291 296 303 306 308 308 304 300 298 296 292 290 267
226 224 226 224 217 222 223 224 224 226 226 231 229 228 236 239 241 241 239 235 236 233 229 230 233 239 256 269 280 287 288 288 294 300 301 304 303 300 295 292 293 285 279
231 228 227 228 229 220 224 225 226 230 229 233 234 238 233 236 239 244 246 243 241 242 244 240 245 251 264 275 280 282 286 292 294 297 301 300 296 296 293 290 285 280 276
233 235 236 234 236 236 224 226 227 229 232 235 236 238 240 237 240 242 241 239 242 242 244 246 251 258 267 275 278 283 289 292 298 298 301 297 294 289 286 283 286 281 276
239 238 236 236 234 235 233 226 226 228 230 234 237 238 239 242 235 240 241 239 241 246 252 254 258 261 269 275 282 286 290 296 299 299 307 302 298 305 293 291 289 283 283
240 241 239 239 242 241 240 243 236 234 234 236 238 241 243 242 243 243 245 244 246 248 249 253 256 263 266 272 274 285 296 298 298 298 306 308 309 298 300 294 294 292 288
237 238 239 239 243 244 245 247 245 243 241 239 239 240 242 246 248 252 252 248 249 252 254 255 256 260 263 269 274 275 282 282 293 303 301 303 305 302 301 298 294 295 291
237 241 240 240 243 247 247 247 246 247 247 252 254 252 246 252 252 256 257 254 257 259 257 260 263 266 270 269 273 278 286 277 280 287 292 300 299 296 297 296 293 294 291
232 233 236 237 240 244 247 249 251 253 257 261 263 266 260 253 256 259 258 259 257 256 260 261 262 274 271 282 275 276 278 285 279 273 281 296 297 297 296 295 293 303 303
228 225 228 233 238 238 239 242 247 252 256 260 261 261 262 263 258 260 258 258 263 265 262 262 269 267 274 267 276 275 279 285 279 283 288 295 299 298 298 298 304 303 300
Wind_Speed_850mb
24 17 17 23 23 21 22 24 26 27 32 29 26 23 25 29 34 33 31 27 24 25 30 36 35 36 34 32 30 29 28 27 28 31 33 31 29 29 29 25 27 30 28
30 25 23 26 25 22 23 26 28 28 32 30 26 27 27 30 31 28 26 24 25 26 31 33 31 28 26 25 26 26 24 27 27 26 28 28 27 23 24 21 17 14 11
31 29 28 27 25 23 26 27 26 29 33 30 25 31 32 32 29 26 22 23 29 30 28 27 25 21 24 24 25 26 25 35 31 32 31 33 33 23 18 15 17 18 23
32 31 30 28 25 24 25 27 26 28 27 27 26 32 29 30 29 24 20 20 29 26 30 26 23 23 25 24 24 23 25 25 22 25 25 18 16 11 15 18 24 26 25
34 32 32 29 26 25 25 26 25 25 26 26 26 31 30 32 30 28 25 24 23 26 31 30 26 24 24 26 26 22 18 16 19 18 18 16 15 13 13 15 19 20 30
37 34 32 29 27 25 24 24 24 24 23 23 24 29 33 29 30 28 32 31 27 31 34 30 25 23 21 18 17 17 14 12 16 14 13 11 13 11 11 14 12 24 26
39 35 33 30 27 26 24 22 22 22 21 21 22 24 25 23 23 26 25 23 24 28 29 27 23 20 16 13 11 12 11 9 12 13 16 20 23 18 13 17 17 19 18
38 37 34 32 28 27 25 21 19 19 18 18 19 19 18 19 20 19 17 16 20 23 26 25 21 16 14 13 11 18 18 19 19 18 20 25 16 11 11 12 14 11 12
34 36 36 34 31 28 24 21 18 17 16 15 15 14 15 15 16 18 17 16 19 21 22 22 20 16 11 11 13 14 18 20 17 16 20 25 14 13 13 20 13 12 11
32 34 36 36 33 31 26 23 19 16 15 13 12 11 11 11 10 9 8 12 16 17 16 17 16 17 10 8 11 15 20 20 18 16 16 17 14 19 18 15 10 4 4
33 34 38 37 35 33 29 25 22 18 16 13 11 9 9 9 8 9 9 9 14 14 14 13 13 14 13 8 10 15 20 20 18 17 16 15 12 12 7 6 7 9 2
39 34 41 39 37 35 32 27 24 20 16 14 11 9 7 8 9 10 8 9 11 11 11 10 10 10 10 7 10 14 17 22 19 17 18 19 18 16 10 9 5 2 1
43 35 43 43 40 39 35 32 28 24 21 18 14 10 7 8 9 9 9 9 10 10 8 9 8 8 7 6 7 9 12 13 16 16 16 17 18 17 14 13 9 5 0
52 45 46 45 44 43 39 36 32 29 26 23 20 16 11 8 7 9 10 12 12 10 9 8 6 7 7 5 3 5 8 9 11 14 16 15 15 16 15 15 14 7 4
56 50 46 45 44 44 43 40 38 35 31 27 25 21 17 12 8 10 11 14 15 13 11 9 7 6 3 1 3 6 8 11 13 14 15 15 14 15 16 16 14 11 10
61 54 52 52 49 45 43 42 39 37 34 33 31 27 23 19 16 14 13 16 17 17 15 15 12 10 8 8 8 11 15 17 18 18 18 18 17 17 17 20 19 16 18
63 58 58 56 55 54 51 45 40 39 40 40 36 32 28 27 24 20 18 18 18 20 21 21 17 15 12 13 15 17 20 22 25 28 27 25 25 24 24 24 24 24 23
59 61 61 59 62 62 58 55 49 41 43 40 38 35 34 33 32 30 26 22 20 21 23 23 22 19 19 20 22 25 29 30 29 33 37 37 36 37 34 32 31 32 32
52 52 57 55 57 65 66 61 57 50 49 47 44 43 40 40 38 38 32 25 25 25 24 26 25 24 23 28 31 34 37 38 38 40 42 43 42 43 44 43 40 40 39
44 45 48 49 50 51 65 68 64 61 58 55 52 50 45 42 42 42 39 36 35 34 34 33 32 33 34 38 41 43 44 46 46 47 43 44 46 46 47 47 46 45 45
51 50 52 52 53 52 58 68 72 73 68 63 59 56 52 45 45 45 44 43 43 45 40 40 40 41 44 48 46 47 48 52 54 48 43 39 41 40 42 45 47 49 48
57 58 61 60 56 54 58 58 60 64 68 68 62 60 57 55 48 46 49 49 48 49 50 48 48 47 49 52 50 51 55 56 53 37 40 41 42 42 39 37 42 41 41
60 65 67 65 63 56 55 56 55 52 57 62 69 68 64 61 58 55 50 54 55 56 55 52 52 54 56 56 56 48 31 21 47 52 48 48 44 42 40 42 41 40 42
55 56 65 63 65 59 58 59 58 60 59 60 58 58 64 64 63 59 55 53 52 55 58 57 59 56 59 58 61 61 53 59 52 44 53 55 52 42 44 47 45 48 45
60 59 60 65 66 64 65 66 64 65 62 57 53 48 47 48 59 64 66 64 63 59 55 54 54 61 57 50 61 53 55 53 58 57 58 56 47 46 49 57 44 42 41
57 62 62 64 66 66 67 70 70 68 67 64 54 53 49 47 48 54 57 61 65 65 70 60 55 57 60 51 48 51 51 54 55 49 51 53 54 62 57 43 37 40 39
Wind_Direction_850mb
176 165 144 123 116 95 82 94 107 103 97 90 90 94 105 118 117 111 103 94 88 84 87 91 89 89 88 85 81 78 75 73 76 81 85 81 79 80 80 84 90 89 86
157 158 142 132 127 103 87 94 107 106 107 98 90 94 106 118 127 122 114 112 104 105 102 104 98 95 88 83 81 74 72 77 79 88 91 86 77 75 82 78 75 80 69
160 153 143 140 132 113 99 99 106 103 114 98 89 90 96 108 128 129 120 113 108 101 103 103 96 95 84 82 80 73 80 82 78 80 80 82 77 74 71 55 55 56 65
158 153 146 145 134 122 104 101 103 99 110 104 87 97 92 98 108 115 115 107 100 96 105 106 111 99 95 92 84 80 82 86 90 89 80 72 73 50 44 43 58 72 75
160 155 150 149 139 130 115 106 101 98 102 110 102 97 91 86 90 97 99 101 103 98 102 109 108 101 95 94 89 77 78 89 93 91 96 80 57 41 45 50 67 63 64
162 158 155 155 145 138 128 116 107 103 101 102 99 105 106 107 100 90 100 105 95 96 98 103 101 101 101 97 94 85 75 72 83 90 86 86 92 66 53 71 77 83 90
164 162 160 159 154 146 139 125 115 110 108 104 105 106 110 113 114 109 111 105 95 98 102 104 101 103 107 107 84 78 80 67 55 78 64 71 67 72 68 90 80 98 116
170 165 165 163 163 156 148 139 129 120 117 114 113 111 111 106 110 117 127 110 102 107 109 104 96 99 106 105 88 78 71 54 50 67 72 78 86 77 53 92 84 98 96
180 173 171 170 170 167 158 152 145 133 126 120 115 116 117 115 115 122 116 121 110 116 111 105 100 108 114 95 72 54 46 39 40 70 80 85 81 65 60 74 72 73 63
182 185 181 179 177 175 170 165 160 152 142 138 127 123 127 128 127 127 112 113 126 120 112 109 105 109 125 71 47 43 40 34 49 66 75 80 56 57 71 85 95 100 69
189 197 193 189 186 184 182 178 175 172 164 159 151 146 142 140 143 147 132 129 142 133 124 119 116 119 128 102 53 49 45 46 52 54 52 55 61 81 76 51 58 41 65
199 194 202 198 196 194 193 189 187 186 184 179 179 172 156 160 160 158 152 139 149 148 138 125 116 115 110 84 59 56 54 51 51 47 39 33 33 34 39 32 23 112 338
203 207 204 203 204 205 202 199 198 199 199 199 204 203 189 169 176 178 170 161 171 166 155 137 118 117 109 95 65 51 51 50 43 36 27 24 21 20 21 17 8 17 158
203 209 207 207 207 212 210 210 208 209 210 212 216 220 218 209 193 195 191 189 194 194 186 169 151 140 140 100 69 50 28 24 21 17 11 4 2 4 3 2 0 352 279
209 211 210 213 213 214 217 215 214 215 217 220 225 227 228 229 222 216 211 212 213 211 211 202 189 192 183 180 283 316 333 341 344 344 349 340 338 341 336 334 333 324 294
218 216 208 211 215 220 220 216 219 219 221 221 227 230 232 233 235 229 223 223 223 222 221 216 215 217 241 263 273 294 311 318 320 318 322 328 320 317 310 309 312 296 297
224 221 220 211 216 218 218 223 226 226 225 228 226 229 233 237 237 239 234 229 225 222 225 222 228 235 246 264 280 287 291 296 303 306 308 308 304 300 298 296 292 290 267
226 224 226 224 217 222 223 224 224 226 226 231 229 228 236 239 241 241 239 235 236 233 229 230 233 239 256 269 280 287 288 288 294 300 301 304 303 300 295 292 293 285 279
231 228 227 228 229 220 224 225 226 230 229 233 234 238 233 236 239 244 246 243 241 242 244 240 245 251 264 275 280 282 286 292 294 297 301 300 296 296 293 290 285 280 276
233 235 236 234 236 236 224 226 227 229 232 235 236 238 240 237 240 242 241 239 242 242 244 246 251 258 267 275 278 283 289 292 298 298 301 297 294 289 286 283 286 281 276
239 238 236 236 234 235 233 226 226 228 230 234 237 238 239 242 235 240 241 239 241 246 252 254 258 261 269 275 282 286 290 296 299 299 307 302 298 305 293 291 289 283 283
240 241 239 239 242 241 240 243 236 234 234 236 238 241 243 242 243 243 245 244 246 248 249 253 256 263 266 272 274 285 296 298 298 298 306 308 309 298 300 294 294 292 288
237 238 239 239 243 244 245 247 245 243 241 239 239 240 242 246 248 252 252 248 249 252 254 255 256 260 263 269 274 275 282 282 293 303 301 303 305 302 301 298 294 295 291
237 241 240 240 243 247 247 247 246 247 247 252 254 252 246 252 252 256 257 254 257 259 257 260 263 266 270 269 273 278 286 277 280 287 292 300 299 296 297 296 293 294 291
232 233 236 237 240 244 247 249 251 253 257 261 263 266 260 253 256 259 258 259 257 256 260 261 262 274 271 282 275 276 278 285 279 273 281 296 297 297 296 295 293 303 303
228 225 228 233 238 238 239 242 247 252 256 260 261 261 262 263 258 260 258 258 263 265 262 262 269 267 274 267 276 275 279 285 279 283 288 295 299 298 298 298 304 303 300